Flag for U.S.A. Weather past 2 weeks in Cocoa Beach, Florida, U.S.A.

Now
78 °F

Passing clouds.


Feels Like: 80 °F
Forecast: 74 / 82 °F
Wind: 6 mph from West

Location: Cocoa / Patrick Air Force Base

Current Time: Sep 16, 2014 at 11:50:27 PM

Latest Report: Sep 16, 2014 at 10:58 PM


Visibility: 10 mi

Pressure: 30.02 "Hg

Humidity: 85%

Dew point: 73 °F

Location of Cocoa BeachLocation

Historic Weather in Cocoa Beach — Graph

°F

Cocoa Beach temperature yesterday

Maximum temperature yesterday: 88 °F (at 2:58 PM)
Minimum temperature yesterday: 77 °F (at 5:58 AM)
Average temperature yesterday: 82 °F

Past Weeks' High & Low Weather Summary

 TemperatureHumidityPressure
High89 °F (Sep 5, 2:58 PM)95% (Sep 5, 6:58 PM)30.19 "Hg (Sep 5, 6:58 PM)
Low73 °F (Sep 5, 7:58 PM)56% (Sep 15, 2:58 PM)29.94 "Hg (Sep 12, 3:59 AM)
Average82 °F79%30.06 "Hg
* Reported Sep 1 10:58 PM — Sep 16 10:58 PM, Cocoa Beach, Weather by CustomWeather, © 2014

Note: Actual official high and low records may vary slightly from our data, if they occured in-between our weather recording intervals... More about our weather records

Advertising

Cocoa Beach weather history for previous 24 hours

 ConditionsComfort  
Time TempWeatherWind HumidityBarometerVisibility
10:58 PM
Sep 16
78 °FPassing clouds.6 mph85%30.02 "Hg10 mi
9:58 PM78 °FPassing clouds.8 mph83%30.02 "Hg10 mi
8:58 PM79 °FClear.6 mph87%30.01 "Hg10 mi
7:58 PM79 °FSunny.2 mph84%30.01 "Hg10 mi
6:58 PM80 °FSunny.6 mph79%29.99 "Hg10 mi
5:58 PM78 °FPassing clouds.5 mph82%30.00 "Hg10 mi
4:58 PM76 °FThunderstorms. Fog.9 mph93%30.00 "Hg3 mi
3:58 PM85 °FThundershowers. Sunny.8 mph75%29.99 "Hg10 mi
2:58 PM86 °FSunny.7 mph66%30.01 "Hg10 mi
1:58 PM89 °FSunny.5 mph59%30.04 "Hg10 mi
12:58 PM87 °FSunny.2 mph62%30.06 "Hg10 mi
11:58 AM87 °FSunny.3 mph64%30.08 "Hg10 mi
10:58 AM87 °FSunny.6 mph66%30.10 "Hg10 mi
9:58 AM84 °FSunny.6 mph73%30.09 "Hg10 mi
8:58 AM82 °FSunny.6 mph77%30.08 "Hg10 mi
7:58 AM80 °FClear.7 mph81%30.08 "Hg10 mi
6:58 AM78 °FClear.6 mph80%30.09 "Hg10 mi
5:58 AM78 °FClear.6 mph84%30.09 "Hg10 mi
4:58 AM78 °FClear.5 mph82%30.08 "Hg10 mi
3:58 AM79 °FClear.5 mph79%30.09 "Hg10 mi
2:58 AM80 °FClear.8 mph76%30.10 "Hg10 mi
1:58 AM81 °FClear.8 mph83%30.12 "Hg10 mi
12:58 AM83 °FPassing clouds.6 mph77%30.14 "Hg10 mi
11:58 PM
Sep 15
83 °FPassing clouds.6 mph75%30.14 "Hg10 mi
Weather by CustomWeather, © 2014

See weather overviewHow to use our weather pages